Location: McDonald Observatory
(30.6717°N, 104.0221°W)
Time: 01:50:16
(UTC-06:00)

Daily predictions for brighter satellites

Satellite Brightness Start Highest point End
(mag) Time Altitude Azimuth Time Altitude Azimuth Time Altitude Azimuth
H-2A ROCKET BODY 4.0 04:16:36 43° SE 04:16:36 43° SE 04:29:40 10° ESE
CZ-3C R/B 4.2 04:34:31 39° SSW 04:39:35 53° SSE 06:15:39 10° E
CZ-3 R/B 3.5 04:32:07 10° SW 04:57:43 47° S 05:04:21 10° E
USA 215 3.3 05:11:28 10° NE 05:18:00 77° SE 05:20:10 45° SSW
Lacrosse 5 3.3 05:24:03 27° NNE 05:24:03 27° NNE 05:26:26 10° NNE
SL-08 ROCKET BODY 4.3 05:19:27 10° S 05:25:26 87° E 05:31:22 10° N
DELTA 2 R/B (1) 3.9 05:27:19 53° S 05:27:19 53° S 05:31:59 10° SE
Okean 1 4.2 05:32:44 48° E 05:32:44 48° E 05:36:25 10° SSE
Cosmos 1346 Rocket 3.4 05:41:28 50° NE 05:41:53 53° E 05:45:45 10° SSE
Cosmos 2327 Rocket 4.4 05:36:04 10° SSW 05:42:25 73° W 05:48:44 10° N
Cosmos 2074 Rocket 4.0 05:45:45 10° SSW 05:51:52 56° W 05:58:01 10° N
Cosmos 1603 4.4 06:01:03 33° NW 06:01:03 33° NW 06:05:00 10° N
Cosmos 2369 Rocket 3.7 05:57:40 10° N 06:02:50 34° ENE 06:07:57 10° SE
H-2A DEB 3.5 06:04:51 55° S 06:04:53 55° S 06:07:41 10° ESE
SJ-6F 4.3 06:01:08 10° N 06:05:10 64° WNW 06:09:12 10° SSW
Cosmos 44 3.4 06:01:00 10° SW 06:06:21 70° WNW 06:11:37 10° NNE
GPS 2-05 Rocket1 2.8 06:06:39 69° NNW 06:06:51 72° NNE 06:10:25 10° ESE
Cosmos 2184 Rocket 4.3 06:04:34 10° SSW 06:10:16 39° W 06:16:01 10° NNW
NOAA 6 4.0 06:07:54 10° N 06:12:55 58° WNW 06:17:57 10° SSW
Cosmos 1536 2.9 06:09:42 10° S 06:13:40 74° E 06:17:39 10° N
Skynet4D Del rocket 4.1 06:11:11 22° WSW 06:14:28 51° S 06:19:39 10° E
IUS-13 SRM-1 3.8 06:16:39 12° SSW 06:17:42 14° S 06:18:54 10° SE
Cosmos 1536 Rocket 4.2 06:20:26 33° W 06:20:50 33° W 06:24:45 10° SSW
Cosmos 1633 2.7 06:18:36 10° SSW 06:22:07 46° W 06:25:37 10° N
CZ-4 R/B 3.8 06:19:12 10° NE 06:22:24 24° E 06:25:33 10° SSE
Cosmos 1943 3.2 06:17:08 10° SSW 06:22:38 57° WNW 06:28:11 10° N
Cosmos 1025 Rocket 4.2 06:18:33 10° N 06:22:44 44° E 06:26:51 10° SSE
Cosmos 921 Rocket 3.9 06:24:14 28° W 06:24:37 28° W 06:28:28 10° SSW
USA 229 DEB 3.6 06:19:15 10° SSW 06:26:08 81° WNW 06:33:05 10° NNE
Cosmos 2154 Rocket 4.0 06:20:03 10° SSW 06:26:10 61° W 06:32:18 10° N
USA 229 3.6 06:19:21 10° SSW 06:26:13 82° WNW 06:33:11 10° NNE
SL-24 R/B 4.3 06:22:34 10° NNE 06:27:36 83° ESE 06:31:59 10° S
Cosmos 468 4.4 06:30:27 10° SSW 06:35:41 84° WNW 06:41:00 10° NNE
Okean 1 Rocket 3.7 06:32:23 10° SW 06:36:21 33° W 06:40:19 10° NNW
Cosmos 1544 Rocket 4.4 06:34:26 10° S 06:38:38 52° E 06:42:53 10° NNE
Cosmos 1943 Rocket 3.8 06:36:01 10° N 06:40:53 31° ENE 06:45:44 10° SE
COSMO-SKYMED 1 2.8 06:38:51 10° S 06:43:03 50° W 06:47:15 10° NNW
Cosmos 2056 Rocket 3.9 06:40:01 12° NW 06:44:19 39° W 06:49:03 10° S
Lacrosse 4 Rocket 4.1 06:43:35 10° NNE 06:45:37 13° ENE 06:47:39 10° E
PSLV R/B 3.4 06:44:43 19° NW 06:47:01 67° NNE 06:50:22 10° ESE
Cosmos 1048 Rocket 3.9 06:48:04 10° SSW 06:53:10 88° WNW 06:58:21 10° NNE
SL-8 Rocket 4.0 06:49:07 10° S 06:55:24 81° W 07:01:39 10° N
Ariane Rocket 3.4 06:50:54 10° N 06:55:37 41° WNW 07:00:20 10° SW
CZ-2C R/B 3.2 06:52:55 10° NNE 06:57:58 58° E 07:02:51 10° S
BREEZE M DEB (TANK) 3.8 06:41:22 11° NW 06:58:28 77° NNE 07:02:02 10° ESE
SL-24 DEB 4.4 06:54:14 10° S 06:58:52 53° W 07:03:34 10° NNW
Cosmos 1975 4.3 06:55:11 10° SSE 06:59:02 42° E 07:02:54 10° NNE
SPOT 3 Rocket 4.5 06:54:20 10° NNE 06:59:21 53° E 07:04:22 10° S
ASTRO E2 2.7 06:56:26 10° W 07:00:29 88° N 07:04:31 10° E
USA 215 4.2 06:55:14 10° NNE 07:00:30 27° NW 07:05:47 10° W
Meteor 1-28 Rocket 3.4 06:58:55 10° S 07:02:35 50° W 07:06:18 10° NNW
Lacrosse 5 3.8 07:03:41 10° NW 07:05:08 11° NW 07:06:35 10° NNW
Okean 1-7 Rocket 4.4 07:01:20 10° NNW 07:05:09 30° W 07:08:59 10° SSW
Helios 1B rocket 3.9 07:02:39 10° SE 07:06:29 39° ENE 07:10:22 10° N
Cosmos 2366 rocket 4.1 07:01:40 10° S 07:07:57 89° WNW 07:14:19 10° N
Cosmos 1892 Rocket 3.6 07:04:31 10° N 07:09:00 89° ENE 07:13:29 10° S
Cosmos 1959 Rocket 4.4 07:02:59 10° S 07:09:04 75° W 07:15:11 10° N
BREEZE-M DEB (TANK) 4.1 06:56:46 10° SW 07:10:02 86° SE 07:13:45 10° NE
Cosmos 2263 4.2 07:07:20 10° NNW 07:12:57 78° WSW 07:18:31 10° SSE
Cosmos 2218 Rocket 4.1 07:10:01 10° SSW 07:16:20 66° W 07:22:43 10° N
GRACE-2 4.5 07:14:13 10° NNW 07:16:48 35° W 07:19:22 10° SSW
Cosmos 1461 2.9 07:13:47 10° SW 07:18:09 67° WNW 07:22:22 10° NNE
Cosmos 1340 2.6 07:15:19 10° NNW 07:19:05 66° W 07:22:48 10° S
SL-27 R/B 2.8 07:16:15 10° S 07:19:44 72° ESE 07:23:18 10° NNE
